Weather History for Baker, MT

Change the Weather History Date:

Saturday, May 11, 2013

  Actual Average Record
Temperature  
Mean Temperature 46 °F -  
Max Temperature 63 °F 64 °F 71 °F (2008)
Min Temperature 28 °F 38 °F 28 °F (2005)
Degree Days  
Heating Degree Days 20    
Moisture  
Dew Point 20 °F    
Average Humidity 38    
Maximum Humidity 66    
Minimum Humidity 16    
Precipitation  
Precipitation 0.00 in - - ()
Sea Level Pressure  
Sea Level Pressure 30.33 in    
Wind  
Wind Speed 3 mph (ESE)    
Max Wind Speed 10 mph    
Max Gust Speed -    
Visibility 10 miles    
Events      
Averages and records for this station are not official NWS values.
T = Trace of Precipitation, MM = Missing Value Source: NWS Daily Summary

Daily Weather History Graph

Daily Weather History Graph

Search for Another Location

Airport:

Trip Planner

Search our weather history database for the weather conditions in past years. The results will help you decide how hot, cold, wet, or windy it might be!

Date:

Astronomy

May. 11, 2013 Rise Set
Actual Time 5:28 AM MDT 8:19 PM MDT
Civil Twilight 4:53 AM MDT 8:54 PM MDT
Nautical Twilight 4:09 AM MDT 9:38 PM MDT
Astronomical Twilight 3:16 AM MDT 10:31 PM MDT
Moon 6:36 AM MDT (5/11) 10:03 PM MDT (5/11)
Length of Visible Light 16h 00m
Length of Day
14h 50m
Waxing Crescent, 3% of the Moon is Illuminated
May 11
Waxing Crescent
May 17
First Quarter
May 24
Full
May 31
Last Quarter
Jun 8
New

Hourly Weather History & Observations

Time (MDT) Temp. Windchill Dew Point Humidity Pressure Visibility Wind Dir Wind Speed Gust Speed Precip Events Conditions
12:51 AM 37.0 °F 34.5 °F 19.9 °F 50% 30.39 in 10.0 mi WNW 3.5 mph - N/A   Clear
1:51 AM 32.0 °F - 21.0 °F 64% 30.41 in 10.0 mi Calm Calm - N/A   Clear
2:51 AM 33.1 °F - 21.9 °F 64% 30.43 in 10.0 mi Calm Calm - N/A   Clear
3:51 AM 35.1 °F - 19.0 °F 52% 30.42 in 10.0 mi Calm Calm - N/A   Clear
4:51 AM 32.0 °F - 19.0 °F 59% 30.43 in 10.0 mi Calm Calm - N/A   Clear
5:51 AM 28.0 °F 24.2 °F 18.0 °F 66% 30.45 in 10.0 mi SSE 3.5 mph - N/A   Clear
6:51 AM 35.1 °F 32.2 °F 21.9 °F 59% 30.46 in 10.0 mi ESE 3.5 mph - N/A   Clear
7:51 AM 42.1 °F 37.7 °F 21.9 °F 45% 30.45 in 10.0 mi ESE 6.9 mph - N/A   Clear
8:51 AM 45.0 °F 41.2 °F 19.9 °F 37% 30.44 in 10.0 mi SE 6.9 mph - N/A   Clear
9:51 AM 46.9 °F - 19.9 °F 34% 30.43 in 10.0 mi ESE 5.8 mph - N/A   Clear
10:51 AM 51.1 °F - 19.0 °F 28% 30.42 in 10.0 mi Variable 4.6 mph - N/A   Clear
11:51 AM 53.1 °F - 19.9 °F 27% 30.39 in 10.0 mi Variable 5.8 mph - N/A   Clear
12:51 PM 57.0 °F - 19.9 °F 24% 30.35 in 10.0 mi NE 4.6 mph - N/A   Clear
1:51 PM 60.1 °F - 19.9 °F 21% 30.32 in 10.0 mi NE 5.8 mph - N/A   Clear
2:51 PM 59.0 °F - 17.1 °F 20% 30.29 in 10.0 mi SE 4.6 mph - N/A   Clear
3:51 PM 60.1 °F - 14.0 °F 16% 30.26 in 10.0 mi Calm Calm - N/A   Clear
4:51 PM 63.0 °F - 16.0 °F 16% 30.23 in 10.0 mi Calm Calm - N/A   Clear
5:51 PM 62.1 °F - 16.0 °F 17% 30.23 in 10.0 mi Calm Calm - N/A   Clear
6:51 PM 62.1 °F - 18.0 °F 18% 30.19 in 10.0 mi Calm Calm - N/A   Clear
7:51 PM 55.9 °F - 24.1 °F 29% 30.18 in 10.0 mi ENE 6.9 mph - N/A   Clear
8:51 PM 46.0 °F 43.1 °F 24.1 °F 42% 30.19 in 10.0 mi East 5.8 mph - N/A   Clear
9:51 PM 45.0 °F 41.2 °F 24.1 °F 44% 30.20 in 10.0 mi ESE 6.9 mph - N/A   Clear
10:51 PM 43.0 °F 37.2 °F 23.0 °F 45% 30.20 in 10.0 mi ESE 10.4 mph - N/A   Clear
11:51 PM 41.0 °F 36.4 °F 21.0 °F 45% 30.20 in 10.0 mi ESE 6.9 mph - N/A   Clear